sat.trackr.live / text

‹ back to catalog

LEO EXPRESS 2

NORAD 62673 · 2025-009BS

PAYLOAD ACTIVE UNKNOWN

§ Identity

Operator
Country
US
Launch date
2025-01-14
Launch site
AFWTR
Launch vehicle
Mass (kg)
RCS (m²)

External: N2YO · Heavens-Above · Gunter

§ Orbital elements

Epoch: 2026-09-22T16:33:04.842432Z

Period
94.59 min
Inclination
97.4182°
Eccentricity
0.0003654
Mean motion
15.22307723 rev/d
Perigee alt
496.4 km
Apogee alt
501.4 km
Semi-major
6,877.0 km
B*
2.0667e-4
RAAN
338.0602°
Arg perigee
150.9963°
Mean anomaly
209.1477°
Rev number
15,143

§ Raw data

LEO EXPRESS 21 62673U 25009BS  26265.68963938  .00004692  00000+0  20667-3 0  99972 62673  97.4182 338.0602 0003654 150.9963 209.1477 15.22307723151436

JSON: /api/v1/satellites/62673 · /tle

For live sub-satellite position, see the globe view (requires WebGL).

§ Visibility from observer

Set your observer location to see the next 7 days of passes ≥ 10°. The values pass through the URL so the page stays shareable.

No JS? Fill the form by hand. The geolocation button needs JavaScript.

§ Radio — SatNOGS DB

ModeDescriptionDownlinkUplink
FM Mode S - Transmitter 2.221 GHz
FM Mode X - Transmitter 8.495 GHz

2 transmitters · refreshed weekly from db.satnogs.org